EW4633 Weather Reports


time (UTC)temp
C
wind
direction
speed
KPH
gust
KPH
rain 1hr
cm
rain 24hr
cm
rain mn
cm
humidity
%
barometer
mb
20260902212001 35 196 1.6 8.0 0.00 0.00 0.00 58 1013.2
20260902211501 35 244 3.2 8.0 0.00 0.00 0.00 57 1013.1
20260902211221 35 242 3.2 8.0 0.00 0.00 0.00 57 1013.2
20260902210502 35 98 1.6 6.4 0.00 0.00 0.00 56 1013.3
20260902210001 35 257 1.6 6.4 0.00 0.00 0.00 57 1013.3
20260902205501 35 244 3.2 11.3 0.00 0.00 0.00 56 1013.3
20260902205001 35 219 3.2 11.3 0.00 0.00 0.00 56 1013.3
20260902204500 35 221 3.2 8.0 0.00 0.00 0.00 57 1013.3
20260902204224 35 180 3.2 8.0 0.00 0.00 0.00 56 1013.4
20260902203500 35 239 1.6 6.4 0.00 0.00 0.00 56 1013.4
20260902203002 35 247 1.6 4.8 0.00 0.00 0.00 56 1013.4
20260902202500 35 311 3.2 11.3 0.00 0.00 0.00 57 1013.4
20260902202001 35 232 3.2 11.3 0.00 0.00 0.00 57 1013.5
20260902201459 35 203 3.2 8.0 0.00 0.00 0.00 56 1013.4
20260902201000 36 249 3.2 6.4 0.00 0.00 0.00 57 1013.4
20260902200715 35 216 3.2 9.7 0.00 0.00 0.00 57 1013.5
20260902195958 35 237 3.2 9.7 0.00 0.00 0.00 58 1013.6
20260902195458 35 227 3.2 8.0 0.00 0.00 0.00 58 1013.6
20260902194956 35 325 3.2 9.7 0.00 0.00 0.00 57 1013.7
20260902194457 35 118 3.2 9.7 0.00 0.00 0.00 58 1013.8
20260902193956 35 259 3.2 9.7 0.00 0.00 0.00 58 1013.9
20260902193456 35 249 1.6 9.7 0.00 0.00 0.00 57 1013.9
20260902192957 35 217 3.2 14.5 0.00 0.00 0.00 58 1013.9
20260902192454 35 268 3.2 14.5 0.00 0.00 0.00 58 1014.0
20260902191954 35 211 1.6 8.0 0.00 0.00 0.00 59 1014.0
20260902191455 35 256 1.6 9.7 0.00 0.00 0.00 60 1014.1
20260902190952 35 225 3.2 9.7 0.00 0.00 0.00 58 1014.1
20260902190453 35 242 1.6 8.0 0.00 0.00 0.00 57 1014.2
20260902185948 35 306 1.6 8.0 0.00 0.00 0.00 58 1014.3
20260902185442 35 277 1.6 6.4 0.00 0.00 0.00 60 1014.2
20260902185428 35 253 3.2 6.4 0.00 0.00 0.00 58 1014.3
20260902184444 35 261 3.2 9.7 0.00 0.00 0.00 59 1014.3
20260902184208 35 176 3.2 9.7 0.00 0.00 0.00 58 1014.3
20260902183438 35 211 3.2 9.7 0.00 0.00 0.00 58 1014.3
20260902182936 35 256 3.2 8.0 0.00 0.00 0.00 58 1014.3
20260902182436 34 121 3.2 8.0 0.00 0.00 0.00 59 1014.4
20260902181938 34 145 1.6 4.8 0.00 0.00 0.00 60 1014.3
20260902181653 35 156 1.6 4.8 0.00 0.00 0.00 59 1014.4
20260902180936 35 268 3.2 11.3 0.00 0.00 0.00 59 1014.5
20260902180435 35 195 3.2 11.3 0.00 0.00 0.00 58 1014.6
20260902175936 35 251 3.2 12.9 0.00 0.00 0.00 59 1014.6
20260902175434 34 147 3.2 12.9 0.00 0.00 0.00 59 1014.5
20260902174936 35 22 1.6 8.0 0.00 0.00 0.00 58 1014.6
20260902174659 34 157 3.2 8.0 0.00 0.00 0.00 60 1014.7
20260902173933 35 251 3.2 9.7 0.00 0.00 0.00 58 1014.8
20260902173433 35 98 3.2 9.7 0.00 0.00 0.00 58 1014.8
20260902172934 35 237 3.2 8.0 0.00 0.00 0.00 58 1014.9
20260902172425 35 143 1.6 8.0 0.00 0.00 0.00 57 1015.0
20260902171918 35 249 1.6 9.7 0.00 0.00 0.00 59 1015.0
20260902171645 35 131 1.6 9.7 0.00 0.00 0.00 59 1015.1
20260902170908 35 327 3.2 8.0 0.00 0.00 0.00 61 1015.0
20260902170401 34 228 1.6 6.4 0.00 0.00 0.00 61 1015.1
20260902170119 34 248 3.2 12.9 0.00 0.00 0.00 61 1015.1
20260902165349 33 263 3.2 12.9 0.00 0.00 0.00 62 1015.1
20260902164843 33 250 3.2 8.0 0.00 0.00 0.00 61 1015.2
20260902164336 33 356 3.2 12.9 0.00 0.00 0.00 62 1015.3
20260902164316 33 224 3.2 12.9 0.00 0.00 0.00 60 1015.3
20260902163324 33 132 4.8 9.7 0.00 0.00 0.00 61 1015.3
20260902162818 33 148 3.2 9.7 0.00 0.00 0.00 60 1015.3
20260902162313 34 216 1.6 4.8 0.00 0.00 0.00 62 1015.3
20260902161806 33 327 1.6 8.0 0.00 0.00 0.00 63 1015.3
20260902161301 33 292 1.6 11.3 0.00 0.00 0.00 62 1015.2
20260902160755 33 255 3.2 11.3 0.00 0.00 0.00 63 1015.3
20260902160515 33 112 3.2 9.7 0.00 0.00 0.00 62 1015.3
20260902155745 33 295 3.2 9.7 0.00 0.00 0.00 63 1015.5
20260902155237 32 217 3.2 9.7 0.00 0.00 0.00 65 1015.5
20260902154731 32 220 3.2 6.4 0.00 0.00 0.00 65 1015.5
20260902154225 32 151 3.2 6.4 0.00 0.00 0.00 64 1015.5
20260902153720 32 66 1.6 8.0 0.00 0.00 0.00 66 1015.5
20260902153213 32 171 3.2 8.0 0.00 0.00 0.00 67 1015.6
20260902152707 32 226 1.6 6.4 0.00 0.00 0.00 66 1015.6
20260902152200 32 252 1.6 6.4 0.00 0.00 0.00 69 1015.7
20260902151655 31 194 1.6 4.8 0.00 0.00 0.00 69 1015.7
20260902151410 31 284 1.6 9.7 0.00 0.00 0.00 71 1015.7
20260902150643 31 144 1.6 9.7 0.00 0.00 0.00 70 1015.7
20260902150136 31 164 1.6 4.8 0.00 0.00 0.00 71 1015.7
20260902145630 31 250 1.6 3.2 0.00 0.00 0.00 74 1015.8
20260902145125 30 250 1.6 3.2 0.00 0.00 0.00 74 1015.8
20260902144619 30 29 0.0 3.2 0.00 0.00 0.00 75 1015.8
20260902144114 30 282 0.0 3.2 0.00 0.00 0.00 75 1015.8
20260902143606 29 149 1.6 3.2 0.00 0.00 0.00 76 1015.8
20260902143100 29 149 1.6 4.8 0.00 0.00 0.00 77 1015.7
20260902142822 28 135 1.6 4.8 0.00 0.00 0.00 78 1015.8
20260902142049 28 195 1.6 4.8 0.00 0.00 0.00 79 1015.8
20260902141543 28 196 1.6 4.8 0.00 0.00 0.00 79 1015.7
20260902141037 27 196 1.6 3.2 0.00 0.00 0.00 81 1015.6
20260902141019 27 196 1.6 4.8 0.00 0.00 0.00 82 1015.6
20260902140024 27 196 1.6 6.4 0.00 0.00 0.00 83 1015.7
20260902135519 26 196 1.6 6.4 0.00 0.00 0.00 84 1015.7
20260902135235 26 212 1.6 6.4 0.00 0.00 0.00 87 1015.7
20260902134508 25 211 1.6 3.2 0.00 0.00 0.00 88 1015.8
20260902134223 25 211 1.6 4.8 0.00 0.00 0.00 90 1015.8
20260902133456 24 211 1.6 4.8 0.00 0.00 0.00 92 1015.8
20260902132949 24 211 1.6 3.2 0.00 0.00 0.00 93 1015.8
20260902132443 23 211 1.6 3.2 0.00 0.00 0.00 93 1015.8
20260902131937 23 211 1.6 3.2 0.00 0.00 0.00 93 1015.7
20260902131431 23 211 1.6 1.6 0.00 0.00 0.00 94 1015.7
20260902130927 23 211 1.6 3.2 0.00 0.00 0.00 94 1015.6
20260902130419 23 211 1.6 3.2 0.00 0.00 0.00 94 1015.7
20260902125912 23 211 1.6 1.6 0.00 0.00 0.00 94 1015.7
20260902125407 23 211 0.0 1.6 0.00 0.00 0.00 94 1015.7
20260902124901 22 211 0.0 1.6 0.00 0.00 0.00 94 1015.7
20260902124624 22 211 0.0 1.6 0.00 0.00 0.00 94 1015.7
20260902123849 22 211 1.6 1.6 0.00 0.00 0.00 94 1015.6
20260902123343 22 211 1.6 1.6 0.00 0.00 0.00 94 1015.6
20260902122837 22 211 0.0 1.6 0.00 0.00 0.00 94 1015.6
20260902122331 22 211 0.0 1.6 0.00 0.00 0.00 94 1015.5
20260902121824 22 211 0.0 1.6 0.00 0.00 0.00 94 1015.5
20260902121319 22 211 1.6 3.2 0.00 0.00 0.00 94 1015.3
20260902120812 22 211 1.6 3.2 0.00 0.00 0.00 94 1015.3
20260902120307 22 211 1.6 3.2 0.00 0.00 0.00 94 1015.2
20260902120020 22 211 1.6 3.2 0.00 0.00 0.00 94 1015.2
20260902115255 22 211 1.6 3.2 0.00 0.00 0.00 94 1015.2
20260902114749 22 211 3.2 3.2 0.00 0.00 0.00 94 1015.2
20260902114242 22 211 3.2 3.2 0.00 0.00 0.00 94 1015.1
20260902113737 22 211 3.2 3.2 0.00 0.00 0.00 94 1015.0
20260902113231 22 211 3.2 3.2 0.00 0.00 0.00 94 1015.0
20260902112949 22 211 3.2 4.8 0.00 0.00 0.00 94 1014.9
20260902112219 22 211 3.2 4.8 0.00 0.00 0.00 94 1015.0
20260902111716 22 211 3.2 3.2 0.00 0.00 0.00 94 1014.9
20260902111216 22 211 3.2 4.8 0.00 0.00 0.00 94 1014.8
20260902110717 22 211 3.2 4.8 0.00 0.00 0.00 94 1014.7
20260902110215 22 211 3.2 4.8 0.00 0.00 0.00 94 1014.7
20260902105716 22 242 3.2 4.8 0.00 0.00 0.00 94 1014.7
20260902105215 22 242 3.2 4.8 0.00 0.00 0.00 94 1014.8
20260902104713 22 242 3.2 4.8 0.00 0.00 0.00 94 1014.8
20260902104215 22 242 3.2 3.2 0.00 0.00 0.00 94 1014.7
20260902103713 22 242 3.2 3.2 0.00 0.00 0.00 94 1014.8
20260902103215 22 242 3.2 3.2 0.00 0.00 0.00 94 1014.8
20260902102714 22 242 3.2 3.2 0.00 0.00 0.00 93 1014.8
20260902102438 22 242 3.2 3.2 0.00 0.00 0.00 93 1014.7
20260902101711 22 242 3.2 3.2 0.00 0.00 0.00 93 1014.7
20260902101209 22 242 3.2 3.2 0.00 0.00 0.00 93 1014.7
20260902100711 22 242 3.2 4.8 0.00 0.00 0.00 93 1014.7
20260902100210 22 242 3.2 4.8 0.00 0.00 0.00 93 1014.7
20260902095711 22 242 3.2 3.2 0.00 0.00 0.00 93 1014.7
20260902095211 22 242 3.2 3.2 0.00 0.00 0.00 93 1014.6
20260902094711 22 242 3.2 3.2 0.00 0.00 0.00 93 1014.6
20260902094211 22 242 3.2 3.2 0.00 0.00 0.00 93 1014.6
20260902093711 22 242 3.2 3.2 0.00 0.00 0.00 93 1014.6
20260902093206 22 242 3.2 4.8 0.00 0.00 0.00 93 1014.6
20260902092706 22 242 3.2 4.8 0.00 0.00 0.00 93 1014.6
20260902092207 22 242 3.2 3.2 0.00 0.00 0.00 93 1014.6
20260902091706 22 242 3.2 3.2 0.00 0.00 0.00 93 1014.6
20260902091206 22 242 3.2 3.2 0.00 0.00 0.00 93 1014.5
20260902090932 22 242 3.2 3.2 0.00 0.00 0.00 93 1014.5
20260902090206 22 242 3.2 3.2 0.00 0.00 0.00 93 1014.4
20260902085706 22 242 3.2 3.2 0.00 0.00 0.00 93 1014.4
20260902085207 22 242 3.2 3.2 0.00 0.00 0.00 93 1014.3
20260902084702 22 242 3.2 3.2 0.00 0.00 0.00 93 1014.3
20260902084201 22 242 3.2 3.2 0.00 0.00 0.00 93 1014.3
20260902083921 22 242 3.2 3.2 0.00 0.00 0.00 93 1014.2
20260902083202 23 242 3.2 3.2 0.00 0.00 0.00 93 1014.1
20260902082702 23 242 3.2 3.2 0.00 0.00 0.00 93 1014.0
20260902082201 23 242 1.6 3.2 0.00 0.00 0.00 93 1014.0
20260902081701 23 242 1.6 4.8 0.00 0.00 0.00 93 1014.0
20260902081203 23 242 1.6 4.8 0.00 0.00 0.00 93 1014.1
20260902080700 23 242 1.6 3.2 0.00 0.00 0.00 93 1014.0
20260902080157 23 242 1.6 3.2 0.00 0.00 0.00 93 1013.9
20260902075658 23 242 1.6 3.2 0.00 0.00 0.00 92 1013.9
20260902075151 23 242 1.6 1.6 0.00 0.00 0.00 92 1013.9
20260902074903 23 242 1.6 1.6 0.00 0.00 0.00 92 1013.9
20260902074401 23 242 1.6 3.2 0.00 0.00 0.00 92 1014.0
20260902073634 23 242 1.6 3.2 0.00 0.00 0.00 92 1013.9
20260902073128 23 242 1.6 3.2 0.00 0.00 0.00 92 1013.9
20260902072622 23 242 1.6 3.2 0.00 0.00 0.00 92 1013.9
20260902072116 23 242 1.6 3.2 0.00 0.00 0.00 92 1013.9
20260902072056 23 242 1.6 3.2 0.00 0.00 0.00 92 1013.9
20260902071103 23 242 3.2 3.2 0.00 0.00 0.00 92 1013.9
20260902070555 23 242 1.6 3.2 0.00 0.00 0.00 92 1013.9
20260902070050 23 242 1.6 3.2 0.00 0.00 0.00 92 1013.9
20260902065545 23 242 1.6 3.2 0.00 0.00 0.00 92 1013.9
20260902065038 23 242 1.6 3.2 0.00 0.00 0.00 92 1013.9
20260902064531 23 242 1.6 3.2 0.00 0.00 0.00 92 1014.0
20260902064027 23 242 1.6 3.2 0.00 0.00 0.00 92 1014.0
20260902063519 23 242 1.6 3.2 0.00 0.00 0.00 92 1014.1
20260902063239 23 242 1.6 3.2 0.00 0.00 0.00 91 1014.0
20260902062508 23 242 1.6 3.2 0.00 0.00 0.00 91 1014.0
20260902062446 23 242 1.6 3.2 0.00 0.00 0.00 91 1014.0
20260902061946 23 242 1.6 3.2 0.00 0.00 0.00 91 1014.0
20260902060950 23 242 1.6 3.2 0.00 0.00 0.00 91 1014.0
20260902060444 23 242 3.2 3.2 0.00 0.00 0.00 91 1014.0
20260902055938 24 242 3.2 3.2 0.00 0.00 0.00 91 1014.1
20260902055432 24 242 1.6 3.2 0.00 0.00 0.00 90 1014.0
20260902054926 24 242 1.6 3.2 0.00 0.00 0.00 90 1014.1
20260902054419 24 242 1.6 3.2 0.00 0.00 0.00 90 1014.1
20260902053914 24 242 1.6 3.2 0.00 0.00 0.00 90 1014.1
20260902053407 24 242 1.6 1.6 0.00 0.00 0.00 90 1014.1
20260902052903 24 242 1.6 3.2 0.00 0.00 0.00 90 1014.1
20260902052400 24 242 1.6 3.2 0.00 0.00 0.00 89 1014.1
20260902051846 24 242 1.6 3.2 0.00 0.00 0.00 89 1014.1
20260902051340 25 242 1.6 3.2 0.00 0.00 0.00 89 1014.1
20260902050834 25 242 1.6 3.2 0.00 0.00 0.00 89 1014.1
20260902050328 25 242 3.2 3.2 0.00 0.00 0.00 88 1014.1
20260902045822 25 242 3.2 4.8 0.00 0.00 0.00 88 1014.1
20260902045541 25 242 3.2 4.8 0.00 0.00 0.00 88 1014.1
20260902044810 25 242 3.2 4.8 0.00 0.00 0.00 88 1014.1
20260902044303 25 245 3.2 4.8 0.00 0.00 0.00 87 1014.0
20260902043758 25 249 3.2 4.8 0.00 0.00 0.00 87 1014.1
20260902043253 25 249 3.2 4.8 0.00 0.00 0.00 87 1014.1
20260902042746 25 249 3.2 4.8 0.00 0.00 0.00 86 1014.1
20260902042441 25 249 1.6 4.8 0.00 0.00 0.00 86 1014.1
20260902042330 25 249 3.2 4.8 0.00 0.00 0.00 86 1014.1
20260902041228 25 249 1.6 3.2 0.00 0.00 0.00 86 1014.1
20260902040722 25 249 1.6 3.2 0.00 0.00 0.00 85 1014.1
20260902040216 25 249 1.6 3.2 0.00 0.00 0.00 85 1014.1
20260902035710 25 249 1.6 3.2 0.00 0.00 0.00 84 1014.1
20260902035204 25 249 1.6 3.2 0.00 0.00 0.00 84 1014.1
20260902034658 26 249 1.6 3.2 0.00 0.00 0.00 83 1014.1
20260902034152 26 249 1.6 3.2 0.00 0.00 0.00 83 1014.1
20260902033645 26 249 1.6 3.2 0.00 0.00 0.00 82 1014.1
20260902033140 26 249 1.6 3.2 0.00 0.00 0.00 82 1014.1
20260902032633 26 249 1.6 3.2 0.00 0.00 0.00 82 1014.0
20260902032128 26 249 1.6 1.6 0.00 0.00 0.00 82 1014.0
20260902031623 26 249 1.6 1.6 0.00 0.00 0.00 82 1014.0
20260902031117 26 249 1.6 1.6 0.00 0.00 0.00 82 1014.0
20260902030609 26 249 1.6 1.6 0.00 0.00 0.00 82 1014.0
20260902030334 26 249 1.6 1.6 0.00 0.00 0.00 81 1014.0
20260902025557 26 249 1.6 1.6 0.00 0.00 0.00 81 1014.0
20260902025052 26 249 1.6 1.6 0.00 0.00 0.00 81 1014.0
20260902024805 26 249 1.6 3.2 0.00 0.00 0.00 80 1014.1
20260902024040 26 249 1.6 3.2 0.00 0.00 0.00 79 1014.0
20260902023534 27 249 1.6 1.6 0.00 0.00 0.00 79 1014.1
20260902023028 27 249 1.6 1.6 0.00 0.00 0.00 78 1014.0
20260902022523 27 249 1.6 1.6 0.00 0.00 0.00 78 1014.1
20260902022016 27 249 1.6 1.6 0.00 0.00 0.00 78 1014.0
20260902021513 27 249 1.6 1.6 0.00 0.00 0.00 77 1014.0
20260902021003 27 249 0.0 1.6 0.00 0.00 0.00 77 1014.0
20260902020458 27 249 0.0 1.6 0.00 0.00 0.00 77 1014.0
20260902015951 27 249 0.0 1.6 0.00 0.00 0.00 76 1014.0
20260902015446 27 249 1.6 1.6 0.00 0.00 0.00 77 1013.9
20260902014939 27 249 1.6 1.6 0.00 0.00 0.00 77 1013.9
20260902014924 27 249 1.6 3.2 0.00 0.00 0.00 77 1013.9
20260902013928 27 249 1.6 3.2 0.00 0.00 0.00 76 1013.9
20260902013421 27 249 1.6 1.6 0.00 0.00 0.00 76 1013.8
20260902012916 27 249 1.6 1.6 0.00 0.00 0.00 76 1013.8
20260902012410 27 249 1.6 3.2 0.00 0.00 0.00 75 1013.8
20260902011904 27 249 1.6 3.2 0.00 0.00 0.00 75 1013.7
20260902011358 27 249 1.6 1.6 0.00 0.00 0.00 74 1013.6
20260902010852 28 249 1.6 3.2 0.00 0.00 0.00 74 1013.5
20260902010610 28 249 1.6 3.2 0.00 0.00 0.00 73 1013.5
20260902005841 28 249 1.6 3.2 0.00 0.00 0.00 73 1013.5
20260902005334 28 249 1.6 3.2 0.00 0.00 0.00 72 1013.4
20260902004828 28 249 1.6 3.2 0.00 0.00 0.00 71 1013.4
20260902004323 29 249 1.6 3.2 0.00 0.00 0.00 70 1013.4
20260902003817 29 249 1.6 3.2 0.00 0.00 0.00 69 1013.4
20260902003532 29 249 1.6 1.6 0.00 0.00 0.00 69 1013.4
20260902002803 29 249 1.6 3.2 0.00 0.00 0.00 68 1013.4
20260902002258 30 249 1.6 3.2 0.00 0.00 0.00 68 1013.4
20260902002014 30 232 1.6 1.6 0.00 0.00 0.00 68 1013.5
20260902001734 30 232 1.6 1.6 0.00 0.00 0.00 68 1013.5
20260902000740 30 232 0.0 1.6 0.00 0.00 0.00 67 1013.6
20260902000234 30 232 0.0 1.6 0.00 0.00 0.00 67 1013.6
20260901235728 30 232 0.0 3.2 0.00 0.00 0.00 67 1013.7
20260901235450 30 232 1.6 3.2 0.00 0.00 0.00 66 1013.7
20260901234716 30 232 1.6 1.6 0.00 0.00 0.00 66 1013.6
20260901234210 30 232 1.6 1.6 0.00 0.00 0.00 66 1013.7
20260901233925 30 232 1.6 1.6 0.00 0.00 0.00 65 1013.7
20260901233158 31 232 1.6 1.6 0.00 0.00 0.00 65 1013.8
20260901232652 31 232 1.6 1.6 0.00 0.00 0.00 65 1013.8
20260901232405 31 232 0.0 1.6 0.00 0.00 0.00 65 1013.8
20260901231639 31 232 0.0 1.6 0.00 0.00 0.00 65 1013.8
20260901231135 31 232 0.0 1.6 0.00 0.00 0.00 65 1013.9
20260901230628 31 232 0.0 4.8 0.00 0.00 0.00 65 1013.8
20260901230342 32 232 0.0 4.8 0.00 0.00 0.00 64 1013.8
20260901225621 32 231 0.0 1.6 0.00 0.00 0.00 64 1013.8
20260901225119 32 230 0.0 1.6 0.00 0.00 0.00 63 1013.8
20260901224620 32 230 0.0 3.2 0.00 0.00 0.00 62 1013.8
20260901224119 32 230 0.0 3.2 0.00 0.00 0.00 62 1013.7
20260901223620 32 231 0.0 3.2 0.00 0.00 0.00 62 1013.7
20260901223120 32 231 1.6 6.4 0.00 0.00 0.00 61 1013.7
20260901222619 33 154 0.0 6.4 0.00 0.00 0.00 60 1013.6
20260901222604 33 250 0.0 4.8 0.00 0.00 0.00 61 1013.6
20260901221619 33 247 0.0 4.8 0.00 0.00 0.00 60 1013.7
20260901221121 33 247 1.6 4.8 0.00 0.00 0.00 59 1013.7
20260901220620 34 243 1.6 4.8 0.00 0.00 0.00 58 1013.7
20260901220344 34 238 1.6 8.0 0.00 0.00 0.00 57 1013.6
20260901215615 34 216 1.6 8.0 0.00 0.00 0.00 58 1013.6
20260901215115 35 229 1.6 6.4 0.00 0.00 0.00 56 1013.5
20260901214615 35 273 1.6 4.8 0.00 0.00 0.00 55 1013.6
20260901214115 35 256 1.6 4.8 0.00 0.00 0.00 54 1013.5
20260901213616 35 256 1.6 6.4 0.00 0.00 0.00 55 1013.5
20260901213114 35 261 1.6 6.4 0.00 0.00 0.00 54 1013.6
20260901212614 35 250 1.6 4.8 0.00 0.00 0.00 55 1013.6